Content
SEND FEEDBACK

Daily
Averages
Monthly
Summary
Germany

GARMISCH-PARTENKIRCHEN, GERMANY


Home > Europe > Germany
Elevation: 2322 feet     Latitude: 47 30N     Longitude: 011 06E

WEATHER
 
SELECT A DAY
Number of Records: 317,235;   Date Range: 7/1/96 - 10/20/14
 
SHARE

PRINT THIS DATA

[ ← Previous Day ]
WEATHER ALMANAC - JANUARY 3, 2013
[ Next Day → ]
[ °C ]   °F
Weather ElementAverageHighLow
Temperature31.2 °F36 °F (4:00 pm)24.8 °F (4:50 am)
Dewpoint25.9 °F32 °F (10:20 pm)21.2 °F (1:50 pm)
Humidity81.1 %100 % (12:50 am)48 % (1:00 pm)
Barometer30.60 in30.74 in (10:00 pm)30.48 in (12:50 am)
Wind Speed3 mph6.9 mph (11:50 am)
Weather ElementAverage
Visibility7.6 mi
Wind DirectionSSE (142.7 °)

Weather ElementTotal
Precipitation---
Heating Degree Days34.6 (Base 65)
Averaged from 55 records on January 3, 2013
WEATHER CONDITIONS BREAKOUT
WIND DIRECTION BREAKOUT
WEATHER BY HOUR - JANUARY 3, 2013
[ °C ]   °F
Local TimeTemperatureDewpointHumidityBarometerVisibilityWind DirectionWind SpeedGust SpeedPrecipitationEventsConditions
12:50 AM28.4 °F28.4 °F100 %30.48 in5.0 miSSW (210°)3.5 mphPartly Cloudy
1:00 AM29.0 °F28.0 °F93 %30.61 in5.0 miSSW (210°)4.5 mph
1:20 AM28.4 °F26.6 °F93 %30.51 in6.2 miVariable1.2 mphPartly Cloudy
1:50 AM28.4 °F26.6 °F93 %30.51 in6.2 miVariable2.3 mphPartly Cloudy
2:20 AM28.4 °F26.6 °F93 %30.51 in6.2 miSW (230°)3.5 mphPartly Cloudy
2:50 AM28.4 °F24.8 °F86 %30.51 in6.2 miWSW (240°)3.5 mphPartly Cloudy
3:20 AM26.6 °F26.6 °F100 %30.51 in4.3 miWSW (240°)4.6 mphFogLight Freezing Fog
3:50 AM26.6 °F26.6 °F100 %30.51 in6.2 miVariable2.3 mphPartly Cloudy
4:00 AM26.0 °F26.0 °F98 %30.65 in6.0 mi°2.2 mphScattered Clouds
4:20 AM26.6 °F24.8 °F93 %30.51 in6.2 miWNW (290°)3.5 mphPartly Cloudy
4:50 AM24.8 °F23.0 °F93 %30.54 in6.2 miVariable2.3 mphPartly Cloudy
5:20 AM24.8 °F24.8 °F100 %30.54 in6.2 miVariable1.2 mphPartly Cloudy
5:50 AM24.8 °F23.0 °F93 %30.57 in6.2 miVariable1.2 mphPartly Cloudy
6:20 AM26.6 °F24.8 °F93 %30.57 in6.2 miWSW (240°)2.3 mphMostly Cloudy
6:50 AM26.6 °F24.8 °F93 %30.57 in6.2 miVariable2.3 mphMostly Cloudy
7:00 AM26.0 °F24.0 °F90 %30.70 in9.0 mi°2.2 mphScattered Clouds
7:20 AM28.4 °F24.8 °F86 %30.57 in6.2 miWest (260°)2.3 mphMostly Cloudy
7:50 AM26.6 °F24.8 °F93 %30.57 in6.2 miVariable2.3 mphMostly Cloudy
8:20 AM28.4 °F24.8 °F86 %30.60 in6.2 miVariable2.3 mphMostly Cloudy
8:50 AM28.4 °F24.8 °F86 %30.60 in6.2 miVariable1.2 mphMostly Cloudy
9:20 AM28.4 °F24.8 °F86 %30.60 in6.2 miVariable1.2 mphMostly Cloudy
9:50 AM30.2 °F24.8 °F80 %30.60 in6.2 miVariable2.3 mphMostly Cloudy
10:00 AM30.0 °F24.0 °F71 %30.72 in31.0 mi°2.2 mphPartly Cloudy
10:20 AM30.2 °F24.8 °F80 %30.60 in6.2 miWSW (250°)2.3 mphMostly Cloudy
10:50 AM32.0 °F24.8 °F75 %30.60 in6.2 miVariable2.3 mphMostly Cloudy
11:20 AM32.0 °F23.0 °F69 %30.60 in6.2 miWest (270°)4.6 mphMostly Cloudy
11:50 AM33.8 °F23.0 °F65 %30.60 in6.2 miWest (280°)6.9 mphMostly Cloudy
12:20 PM33.8 °F24.8 °F70 %30.57 in6.2 miWNW (290°)5.8 mphMostly Cloudy
12:50 PM35.6 °F23.0 °F60 %30.57 in6.2 miWNW (290°)5.8 mphMostly Cloudy
1:00 PM35.0 °F23.0 °F48 %30.66 in31.0 miWNW (290°)6.7 mphScattered Clouds
1:20 PM35.6 °F23.0 °F60 %30.57 in6.2 miWNW (300°)3.5 mphMostly Cloudy
1:50 PM35.6 °F21.2 °F56 %30.57 in6.2 miVariable2.3 mphMostly Cloudy
2:20 PM35.6 °F23.0 °F60 %30.57 in6.2 miVariable1.2 mphMostly Cloudy
2:50 PM35.6 °F23.0 °F60 %30.57 in6.2 miVariable1.2 mphMostly Cloudy
3:20 PM35.6 °F23.0 °F60 %30.60 in6.2 miVariable1.2 mphMostly Cloudy
3:50 PM35.6 °F24.8 °F65 %30.60 in6.2 miVariable2.3 mphMostly Cloudy
4:00 PM36.0 °F25.0 °F52 %30.69 in31.0 mi°2.2 mphOvercast
4:20 PM35.6 °F24.8 °F65 %30.60 in6.2 miVariable1.2 mphMostly Cloudy
4:50 PM35.6 °F26.6 °F70 %30.63 in6.2 miWest (270°)2.3 mphMostly Cloudy
5:20 PM35.6 °F24.8 °F65 %30.63 in6.2 miSSE (160°)2.3 mphMostly Cloudy
5:50 PM35.6 °F24.8 °F65 %30.63 in6.2 miWNW (300°)3.5 mphRainLight Rain
6:20 PM33.8 °F26.6 °F75 %30.63 in6.2 miVariable2.3 mphRain-SnowLight Rain
6:50 PM33.8 °F26.6 °F75 %30.63 in6.2 miWSW (250°)4.6 mphMostly Cloudy
7:00 PM34.0 °F26.0 °F63 %30.72 in16.0 miWSW (250°)4.5 mphLight Ice Pellets
7:20 PM33.8 °F28.4 °F81 %30.63 in6.2 miWest (280°)5.8 mphMostly Cloudy
7:50 PM33.8 °F28.4 °F81 %30.63 in6.2 miWest (260°)4.6 mphRainLight Rain Showers
8:20 PM33.8 °F28.4 °F81 %30.63 in6.2 miVariable1.2 mphRainRain Showers
8:50 PM33.8 °F30.2 °F87 %30.63 in5.6 miVariable2.3 mphRainRain Showers
9:20 PM32.0 °F30.2 °F93 %30.63 in5.6 miWest (280°)3.5 mphRainLight Rain Showers
9:50 PM32.0 °F30.2 °F93 %30.63 in5.0 miWSW (240°)3.5 mphRainRain Showers
10:00 PM33.0 °F31.0 °F88 %30.74 in5.0 miWSW (240°)4.5 mphRainHeavy Rain Showers
10:20 PM32.0 °F32.0 °F100 %30.63 in6.2 miVariable1.2 mphRainLight Rain
10:50 PM32.0 °F32.0 °F100 %30.63 in5.6 miWNW (290°)3.5 mphRainLight Rain
11:20 PM32.0 °F32.0 °F100 %30.63 in4.3 miWest (260°)3.5 mphRainRain
11:50 PM32.0 °F32.0 °F100 %30.63 in5.0 miNW (310°)3.5 mphLight Freezing Drizzle
Hourly data recorded from LOWI, located miles away from Garmisch-Partenkirchen, Germany







STORIES FROM OUR PARTNERS